Location: ??????
(54.8268°N, 39.2163°E)
Time: 12:06:48
(UTC+00:00)

COSMOS 2428 - Pass Details

Date: 13 September 2025
Orbit: 846 x 852 km, 70.9° (Epoch: 16 December)

Event Time Altitude Azimuth Distance (km) Brightness Sun altitude
Rises 21:54:14 0° 326° (NW) 3,425 6.5 -31.3°
Reaches altitude 10° 21:56:42 10° 327° (NNW) 2,485 5.6 -31.2°
Enters shadow 22:01:21 60° 341° (NNW) 970 3.1 -31.1°
